Girdwood, AK

11:16 PM AKST on February 24, 2017 (GMT -0900)
Portage Glacier

Weather History for PATO - August, 2013

Change the Weather History Date:

Friday, August 16, 2013

  Actual Average (PAWR) Record (PAWR)
Temperature  
Mean Temperature 53 °F -  
Max Temperature 55 °F 61 °F 76 °F (1957)
Min Temperature 51 °F 49 °F 42 °F (1955)
Degree Days  
Heating Degree Days 12    
Growing Degree Days 3 (Base 50)    
Moisture  
Dew Point 50 °F    
Average Humidity 89    
Maximum Humidity 96    
Minimum Humidity 80    
Precipitation  
Precipitation 0.62 in - - ()
Sea Level Pressure  
Sea Level Pressure 29.73 in    
Wind  
Wind Speed 10 mph (ESE)    
Max Wind Speed 18 mph    
Max Gust Speed 29 mph    
Visibility 7 miles    
Events Rain    
Averages and records for this station are not official NWS values.
T = Trace of Precipitation, MM = Missing Value Source: NWS Daily Summary

Daily Weather History Graph

Daily Weather History Graph

Search for Another Location

Airport or City:

Trip Planner

Search our weather history database for the weather conditions in past years. The results will help you decide how hot, cold, wet, or windy it might be!

Date:

Astronomy

Aug. 16, 2013 Rise Set
Actual Time 6:09 AM AKDT 9:47 PM AKDT
Civil Twilight 5:16 AM AKDT 10:39 PM AKDT
Nautical Twilight 3:57 AM AKDT 11:57 PM AKDT
Astronomical Twilight 2:32 AM AKDT 1:26 AM AKDT
Moon 6:51 PM AKDT (8/16) 12:45 AM AKDT (8/16)
Length of Visible Light 17h 23m
Length of Day
15h 38m
Waxing Gibbous, 76% of the Moon is Illuminated
Aug 16
Waxing Gibbous
Aug 20
Full
Aug 28
Last Quarter
Sep 5
New
Sep 12
First Quarter

Hourly Weather History & Observations

Time (AKDT) Temp. Dew Point Humidity Pressure Visibility Wind Dir Wind Speed Gust Speed Precip Events Conditions
12:53 AM 52.0 °F 46.9 °F 83% 29.80 in 10.0 mi East 10.4 mph - N/A   Clear
1:53 AM 53.1 °F 46.9 °F 80% 29.80 in 10.0 mi East 6.9 mph - N/A   Scattered Clouds
2:53 AM 52.0 °F 46.9 °F 83% 29.79 in 10.0 mi ENE 8.1 mph - N/A   Mostly Cloudy
3:53 AM 52.0 °F 46.9 °F 83% 29.78 in 10.0 mi ENE 9.2 mph - N/A   Mostly Cloudy
4:53 AM 54.0 °F 48.0 °F 80% 29.77 in 10.0 mi East 11.5 mph - N/A   Mostly Cloudy
5:53 AM 51.1 °F 46.9 °F 86% 29.77 in 10.0 mi East 8.1 mph - N/A   Overcast
6:53 AM 53.1 °F 46.9 °F 80% 29.77 in 10.0 mi ENE 9.2 mph - N/A   Overcast
7:53 AM 53.1 °F 48.0 °F 83% 29.77 in 10.0 mi ENE 8.1 mph - N/A   Overcast
8:00 AM 53.1 °F 48.0 °F 83% 29.77 in 10.0 mi East 6.9 mph - N/A   Overcast
8:43 AM 53.1 °F 46.9 °F 80% 29.76 in 10.0 mi ENE 9.2 mph - N/A   Overcast
8:53 AM 53.1 °F 48.0 °F 83% 29.76 in 10.0 mi East 6.9 mph - N/A   Overcast
9:04 AM 52.0 °F 46.9 °F 83% 29.76 in 10.0 mi East 11.5 mph - N/A   Overcast
9:36 AM 52.0 °F 46.9 °F 83% 29.76 in 10.0 mi East 10.4 mph - N/A   Overcast
9:53 AM 52.0 °F 46.9 °F 83% 29.76 in 10.0 mi East 10.4 mph - N/A   Overcast
10:53 AM 52.0 °F 48.0 °F 86% 29.75 in 10.0 mi East 8.1 mph 18.4 mph N/A   Overcast
11:53 AM 51.1 °F 48.9 °F 92% 29.75 in 7.0 mi East 9.2 mph - 0.00 in Rain Light Rain
12:53 PM 54.0 °F 51.1 °F 90% 29.75 in 10.0 mi North - - 0.02 in Rain Light Rain
1:53 PM 53.1 °F 51.1 °F 93% 29.75 in 6.0 mi SE 8.1 mph 16.1 mph 0.02 in Rain Light Rain
2:18 PM 53.1 °F 51.1 °F 93% 29.74 in 5.0 mi SE 8.1 mph - 0.04 in Rain Light Rain
2:53 PM 53.1 °F 52.0 °F 96% 29.74 in 4.0 mi SE 9.2 mph 21.9 mph 0.08 in Rain Rain
3:53 PM 53.1 °F 51.1 °F 93% 29.73 in 6.0 mi SE 10.4 mph 23.0 mph 0.06 in Rain Light Rain
4:32 PM 54.0 °F 51.1 °F 90% 29.71 in 9.0 mi ESE 12.7 mph 23.0 mph 0.01 in Rain Light Rain
4:53 PM 53.1 °F 52.0 °F 96% 29.72 in 4.0 mi SE 6.9 mph 21.9 mph 0.02 in Rain Light Rain
5:08 PM 54.0 °F 52.0 °F 93% 29.71 in 2.5 mi SE 8.1 mph 16.1 mph 0.01 in Rain Light Rain
5:42 PM 54.0 °F 52.0 °F 93% 29.71 in 1.8 mi ESE 10.4 mph 20.7 mph 0.04 in Rain Light Rain
5:53 PM 55.0 °F 52.0 °F 89% 29.70 in 1.8 mi ESE 16.1 mph 28.8 mph 0.05 in Rain Light Rain
5:58 PM 54.0 °F 52.0 °F 93% 29.70 in 1.8 mi SE 11.5 mph 28.8 mph 0.00 in Rain Light Rain
6:03 PM 55.0 °F 52.0 °F 89% 29.70 in 2.0 mi East 16.1 mph 27.6 mph 0.01 in Rain Light Rain
6:13 PM 55.0 °F 52.0 °F 89% 29.70 in 2.5 mi ESE 16.1 mph 28.8 mph 0.01 in Rain Light Rain
6:48 PM 53.6 °F 51.8 °F 94% 29.69 in 3.0 mi East 8.1 mph 25.3 mph 0.03 in Rain Light Rain
6:53 PM 55.0 °F 52.0 °F 89% 29.69 in 3.0 mi North - - 0.03 in Rain Light Rain
7:53 PM 55.0 °F 51.1 °F 86% 29.69 in 3.0 mi ESE 12.7 mph 27.6 mph 0.08 in Rain Rain
8:42 PM 54.0 °F 52.0 °F 93% 29.69 in 2.5 mi SE 9.2 mph 23.0 mph 0.11 in Rain Rain
8:53 PM 53.1 °F 52.0 °F 96% 29.69 in 2.5 mi SSE 10.4 mph 19.6 mph 0.14 in Rain Rain
9:02 PM 53.1 °F 51.1 °F 93% 29.69 in 4.0 mi ESE 13.8 mph 24.2 mph 0.01 in Rain Light Rain
9:22 PM 54.0 °F 52.0 °F 93% 29.68 in 2.5 mi SSE 15.0 mph 27.6 mph 0.03 in Rain Light Rain
9:37 PM 54.0 °F 52.0 °F 93% 29.68 in 4.0 mi East 18.4 mph 28.8 mph 0.06 in Rain Rain
9:53 PM 55.0 °F 51.1 °F 86% 29.69 in 9.0 mi Variable 6.9 mph 24.2 mph 0.06 in Rain Light Rain
10:53 PM 53.1 °F 52.0 °F 96% 29.69 in 4.0 mi SE 10.4 mph 18.4 mph 0.04 in Rain Rain
11:29 PM 54.0 °F 52.0 °F 93% 29.69 in 8.0 mi East 10.4 mph 18.4 mph 0.02 in Rain Light Rain
11:39 PM 53.1 °F 52.0 °F 96% 29.68 in 9.0 mi SE 13.8 mph 25.3 mph 0.02 in Rain Light Rain
11:49 PM 53.6 °F 51.8 °F 94% 29.68 in 10.0 mi SE 12.7 mph 24.2 mph 0.02 in Rain Light Rain
11:53 PM 53.1 °F 51.1 °F 93% 29.68 in 9.0 mi SE 11.5 mph 24.2 mph 0.02 in Rain Light Rain